Presure
177 186 169 171 177 162 168 164 169 147 169 169 135 167 165 181 160 168 162 136 140 139 177 179 185 178 164 173 160 167 176 179 168 179 179 171 155 166 184 177 145 167 147 167 165 184 166 177 186 166 180 187 186 192
135 173 160 181 179 154 184 190 171 175 170 164 167 162 179 170 173 179 172 159 129 167 163 182 159 161 169 180 188 183 188 183 155 149 176 181 175 177 175 183 150 151 177 184 190 192 195 179 183 192 215 203 203 197
173 172 184 153 181 182 174 172 184 170 188 165 165 175 164 166 186 166 174 161 163 177 162 165 168 162 163 169 168 160 171 179 186 179 173 178 179 187 183 187 183 185 179 183 186 191 190 191 190 201 195 204 199 187
192 194 178 186 164 191 145 173 180 186 183 176 172 172 176 174 170 169 180 163 159 183 174 170 178 178 177 174 178 169 164 170 180 186 149 144 184 179 156 182 166 182 190 172 141 128 123 190 184 191 202 187 196 212
234 186 159 139 186 206 202 157 188 212 213 191 196 192 180 176 178 163 158 172 176 167 178 171 176 142 175 173 179 183 191 189 189 180 168 168 168 167 166 180 169 152 195 194 181 180 193 192 192 204 202 212 211 195
254 249 229 167 144 150 222 208 172 220 214 194 185 200 175 181 188 180 181 179 188 181 179 185 181 180 179 177 183 177 179 183 140 170 185 182 186 185 166 169 180 177 182 189 196 197 186 200 191 189 203 213 219 191
262 238 236 227 230 229 211 232 222 227 199 213 194 203 215 197 193 189 200 186 194 187 187 184 183 184 185 185 182 183 186 179 180 175 176 179 183 182 176 171 174 169 170 181 181 183 198 194 188 192 199 200 196 223
174 268 253 241 264 256 194 239 235 180 229 185 200 188 202 214 189 179 194 200 183 185 191 179 188 176 192 189 183 174 185 190 187 183 182 183 186 194 179 184 184 149 190 186 194 190 195 202 200 200 218 208 207 188
161 157 267 242 262 260 247 242 231 226 214 177 209 173 211 214 203 182 205 211 195 187 186 194 185 191 193 195 191 190 181 179 187 186 188 176 184 192 149 160 190 194 193 203 193 201 202 205 178 206 218 222 226 231
246 245 224 235 267 240 249 238 236 239 221 208 223 227 206 226 212 209 191 219 212 203 189 193 204 195 182 196 194 197 198 196 196 198 198 193 186 186 194 204 196 195 200 201 200 206 213 107 109 224 221 214 240 240
243 242 254 244 258 228 242 251 242 245 230 238 221 211 221 230 197 211 210 203 210 212 213 207 204 209 205 201 198 199 197 198 196 197 201 200 192 197 126 178 204 208 208 202 127 157 212 224 202 215 232 212 217 208
236 238 240 237 237 251 260 250 232 218 215 235 242 244 224 244 230 223 225 219 224 215 210 203 200 207 211 211 206 200 214 215 211 208 157 186 204 206 208 204 83 86 209 212 204 224 233 237 219 212 232 226 210 141
240 239 236 237 241 242 233 232 250 241 242 247 129 133 225 241 239 232 226 220 231 224 226 217 212 213 217 218 218 214 199 208 214 216 215 220 222 220 215 202 209 211 213 232 238 223 215 214 250 246 238 227 136 235
273 274 270 243 232 232 232 235 234 229 256 235 240 255 252 250 250 240 242 240 239 264 234 239 218 226 228 217 219 229 229 194 203 203 88 223 234 230 230 231 226 243 232 224 226 269 278 265 257 266 261 238 247 248
267 264 265 268 262 270 244 242 227 229 233 277 270 247 235 250 248 265 243 262 243 251 249 249 249 253 257 229 138 221 195 220 238 214 66 221 224 155 221 231 231 211 261 274 266 285 279 306 320 309 306 289 261 318
268 269 268 270 266 265 266 265 264 268 259 251 256 259 263 230 261 256 281 252 267 278 234 229 230 231 222 222 240 238 262 265 235 243 255 225 222 217 289 226 219 273 309 305 215 275 282 340 331 335 342 333 335 322
272 270 268 271 272 271 273 275 272 269 265 264 280 281 281 272 284 273 243 278 242 244 252 278 279 235 247 249 243 216 280 104 103 266 281 266 270 301 283 263 227 310 212 351 307 312 340 331 332 326 309 304 318 353
273 271 268 266 268 271 273 274 273 273 271 271 269 270 275 271 270 291 294 282 293 285 229 257 296 300 273 281 213 81 131 288 300 294 288 285 291 236 276 214 294 341 316 326 318 158 305 341 349 349 354 345 347 349
272 273 273 275 278 276 274 273 274 272 282 279 273 268 268 166 271 275 227 272 280 288 224 236 273 290 252 185 241 287 283 259 309 288 290 335 332 320 321 316 216 307 261 206 307 312 347 347 347 342 353 387 378 451
284 289 287 282 279 281 279 275 281 291 290 281 280 272 272 275 272 275 267 264 155 274 271 267 262 263 268 270 144 300 295 165 287 277 306 309 303 297 291 289 301 305 308 309 323 269 332 343 332 404 434 433 452 434
292 293 303 282 292 295 289 277 286 292 289 280 282 285 280 283 277 277 263 281 283 71 73 261 265 285 293 295 284 282 283 285 137 138 201 287 292 263 312 321 318 339 372 366 371 417 255 436 440 431 432 415 409 405
317 320 305 299 283 284 296 299 284 279 278 282 279 280 276 266 249 272 275 276 286 243 274 282 290 298 283 283 247 280 294 291 294 283 307 302 310 224 384 458 544 287 90 458 101 125 437 397 439 419 405 402 393 386
357 348 354 331 350 336 317 310 297 281 297 266 271 280 282 278 283 283 284 102 221 198 277 278 274 279 187 188 277 294 297 299 301 398 453 479 475 470 483 503 509 499 482 313 302 440 438 435 428 408 398 395 379 249
344 358 359 337 348 350 353 333 317 316 303 293 289 290 284 276 282 280 175 251 231 282 255 286 293 293 256 284 287 331 457 205 459 93 370 409 412 392 455 460 464 467 461 455 443 435 433 432 423 403 394 387 368 356
414 383 371 333 356 359 353 348 354 360 337 336 318 334 322 93 316 319 309 311 138 299 317 275 360 428 416 118 146 396 206 385 153 363 383 396 390 439 414 428 430 403 412 146 426 425 432 440 450 390 384 365 347 407
403 431 410 417 420 411 406 378 400 397 390 381 377 377 382 334 295 387 410 424 410 399 395 299 390 196 256 377 334 359 171 283 432 430 432 420 409 234 239 255 223 419 397 402 416 425 432 334 399 382 292 375 416 390
386 390 389 393 388 400 415 416 419 450 430 412 410 416 415 414 397 375 374 367 369 370 365 359 356 355 315 272 231 94 373 231 411 423 431 289 429 127 263 405 382 388 393 408 424 434 439 451 390 383 363 402 403 395
352 365 368 369 373 376 368 398 377 371 372 375 378 355 349 345 338 340 348 348 347 345 346 203 99 397 412 403 386 378 378 115 405 417 421 416 167 442 434 428 417 408 406 398 410 425 447 465 376 351 362 392 392 405
348 370 381 340 333 327 326 331 332 338 339 328 327 325 323 328 331 339 338 336 344 402 404 419 402 389 389 345 376 377 305 406 165 423 434 435 430 428 442 444 439 438 441 434 437 457 431 386 346 367 398 395 391 356
319 315 312 313 311 312 317 317 309 307 308 310 314 328 339 334 332 387 382 382 393 404 110 369 367 369 389 397 201 413 420 420 292 436 306 444 443 445 451 466 465 476 460 455 444 418 376 348 373 399 234 387 382 218
288 292 302 304 312 317 316 309 300 296 300 333 336 365 377 383 377 351 353 370 359 261 364 371 374 377 378 407 296 303 407 341 244 376 337 298 330 459 462 458 472 481 471 412 372 347 164 292 164 229 384 380 328 200
289 291 289 289 294 296 299 334 330 323 320 363 358 367 363 371 359 322 330 341 365 348 355 355 371 346 418 343 278 267 279 353 337 333 334 346 349 347 348 352 338 347 349 357 375 379 305 390 377 377 372 361 348 318
292 294 312 357 336 329 324 317 349 364 353 343 340 344 344 342 333 363 367 349 345 334 328 332 341 345 335 283 274 271 238 349 346 348 345 335 337 345 352 358 363 366 383 342 385 435 407 390 392 372 367 345 317 307
Wind_Speed
77 83 65 65 67 57 63 64 62 43 60 60 34 50 46 48 42 46 38 28 28 27 37 36 34 36 32 31 27 26 28 29 27 25 25 31 35 33 31 33 32 36 34 37 39 37 45 43 49 41 44 51 51 52
49 79 66 78 75 57 74 71 69 68 67 59 63 57 63 60 57 54 52 44 27 44 41 48 34 36 39 41 41 39 40 38 38 37 34 35 35 36 37 42 40 41 41 44 46 50 50 43 47 51 62 60 62 59
79 76 86 57 81 78 74 73 75 72 74 67 64 72 63 64 62 59 58 51 51 57 45 45 49 40 40 44 43 38 40 43 45 44 40 44 45 47 46 49 47 47 44 48 52 59 52 52 54 67 61 70 69 59
102 102 85 85 64 86 46 73 77 78 79 78 76 75 76 75 73 70 69 57 55 65 60 57 61 60 59 55 56 51 46 49 51 52 46 44 53 51 45 53 53 54 60 43 42 44 38 63 54 65 79 62 72 81
112 90 72 44 87 96 90 68 83 85 84 82 82 82 80 80 81 64 58 75 75 61 70 66 67 46 63 58 63 64 62 61 61 58 51 52 52 47 56 63 62 47 72 70 55 59 76 78 79 86 86 90 87 81
104 100 99 80 55 54 99 89 77 88 86 84 83 86 82 83 86 85 84 80 78 78 74 77 76 74 72 69 74 68 67 68 49 59 67 69 70 69 56 63 71 66 71 75 83 86 70 88 78 78 93 93 93 80
102 90 93 96 99 99 90 97 86 83 77 87 88 86 84 85 89 91 81 85 82 82 82 82 83 83 82 81 79 78 77 71 74 70 73 73 75 74 72 72 71 63 58 72 73 73 86 82 82 82 90 93 90 101
72 99 95 94 93 94 74 97 94 66 89 73 89 80 89 86 77 67 78 83 86 85 87 82 88 73 91 88 82 72 80 84 82 80 81 82 83 88 79 85 86 65 86 84 89 84 87 91 89 92 108 103 102 88
88 72 100 87 93 94 94 97 96 96 87 67 93 74 89 87 86 88 84 85 89 90 88 93 90 90 92 93 92 91 82 81 88 89 90 81 91 96 60 73 88 91 92 100 88 95 98 105 87 103 110 111 113 111
89 90 89 88 105 91 94 99 99 99 95 93 94 92 90 92 90 89 94 88 91 94 92 96 100 96 86 98 99 101 99 99 98 99 101 99 97 100 103 105 96 95 100 99 98 105 115 31 41 118 116 106 116 114
88 89 92 90 93 87 90 99 99 100 98 100 91 87 93 97 89 92 89 94 94 97 99 101 100 100 102 104 104 103 102 102 102 103 108 106 105 106 53 87 105 110 110 102 42 69 117 124 102 115 122 105 109 102
88 89 90 90 88 93 103 100 97 94 94 99 98 98 95 98 98 96 94 93 100 99 101 102 101 102 103 106 108 106 109 109 112 112 78 101 116 118 117 108 4 13 112 114 103 125 128 127 116 105 119 119 105 55
91 92 91 91 91 92 92 94 101 99 103 105 44 48 93 97 95 94 97 102 107 107 108 105 105 107 109 111 112 111 105 110 111 112 115 120 122 122 120 111 117 114 111 122 121 110 106 107 132 131 125 116 53 121
86 86 88 93 92 93 94 94 95 93 104 96 97 107 105 101 101 96 97 102 105 105 108 113 104 109 113 109 109 108 111 99 109 111 25 121 116 120 122 123 128 118 126 126 126 111 112 118 125 126 129 121 126 119
88 89 89 89 90 90 94 92 94 95 96 99 104 97 90 103 101 110 100 108 102 102 103 104 104 104 106 106 46 109 92 112 109 119 6 118 124 64 120 122 125 106 118 119 118 112 118 120 118 114 113 112 121 109
91 91 91 90 91 92 92 93 94 93 91 95 94 92 98 89 110 106 108 101 102 106 98 97 100 103 104 101 99 99 107 107 114 112 108 124 124 120 112 114 113 115 115 113 80 113 110 105 109 105 96 97 97 98
92 93 92 92 91 91 92 92 93 94 95 91 89 94 97 102 104 107 97 109 98 97 101 108 105 98 101 98 99 112 102 18 23 99 106 101 104 113 108 110 113 110 61 103 102 102 102 103 104 102 101 99 95 87
95 94 93 93 93 92 92 92 91 90 88 88 90 93 94 96 97 101 105 103 104 104 90 95 101 98 92 95 102 13 34 101 108 107 106 106 107 118 108 103 86 102 90 98 98 36 104 102 101 94 90 89 84 84
97 96 95 95 95 94 93 92 90 89 87 86 87 90 92 56 95 98 80 101 102 104 68 83 98 96 85 56 101 100 98 93 101 99 99 101 101 102 102 102 61 98 76 51 96 99 102 103 97 92 90 80 75 57
98 98 99 97 95 95 94 91 91 90 88 87 88 90 92 93 96 98 99 103 46 101 95 94 93 94 95 95 41 96 96 28 96 98 94 95 95 95 96 97 99 98 97 98 102 82 103 100 96 73 62 59 51 48
98 98 100 96 97 97 96 89 90 87 85 84 86 89 90 92 95 100 97 106 101 12 9 93 96 98 100 99 95 93 91 91 48 45 67 91 91 78 98 100 100 105 98 97 95 74 53 61 56 53 51 50 48 45
95 96 97 97 94 95 93 91 85 84 83 85 89 93 92 90 85 95 100 95 90 74 94 99 103 106 100 94 78 92 95 96 97 90 100 100 100 35 81 75 46 25 5 55 26 37 55 50 48 46 47 42 42 43
90 92 91 94 98 99 94 92 89 88 91 86 89 91 90 89 92 96 93 21 58 46 104 108 105 100 47 48 87 96 97 99 100 77 67 56 57 57 48 37 35 38 38 34 43 48 46 46 42 39 38 37 39 33
81 86 87 90 91 92 92 94 94 96 92 91 92 90 87 89 93 91 42 79 83 103 94 106 106 103 88 97 89 103 57 32 56 9 64 69 65 45 50 45 37 33 33 34 38 42 42 41 34 32 34 35 35 32
60 76 79 75 82 85 87 89 93 95 94 97 92 95 95 9 97 94 94 98 27 102 109 98 99 64 68 22 35 73 28 75 14 73 66 64 55 50 45 48 47 43 44 24 33 38 37 34 29 30 33 30 30 21
36 33 40 41 43 50 56 60 64 68 73 76 76 77 76 66 55 68 55 49 57 60 64 47 66 35 52 73 63 69 28 31 57 58 49 53 55 49 53 37 31 42 42 44 40 39 36 40 26 32 33 24 21 14
25 27 31 32 35 34 33 36 38 32 32 35 38 37 38 35 35 47 48 55 57 58 61 65 69 71 58 45 38 8 33 31 44 43 42 32 47 21 30 46 37 35 38 40 40 42 42 37 29 27 21 19 19 15
27 25 26 24 23 22 24 20 24 29 32 34 31 34 35 39 45 53 52 58 60 61 62 32 1 46 41 33 38 44 47 24 46 45 43 41 15 36 36 35 39 37 36 33 32 33 28 26 25 17 19 18 16 15
14 14 12 11 15 19 25 29 29 28 27 29 32 36 38 44 48 52 52 58 59 39 36 38 26 33 33 34 46 51 40 50 19 43 38 37 34 31 38 40 41 36 32 29 26 27 20 24 16 18 20 17 15 16
6 9 13 17 23 28 25 19 25 31 36 38 37 36 40 46 49 36 35 33 33 27 17 25 33 39 35 34 29 36 37 38 30 41 34 36 32 30 30 33 32 34 31 25 19 22 20 15 18 20 7 17 18 10
20 19 20 23 23 23 22 25 31 35 39 36 40 30 23 24 23 31 33 24 23 23 29 31 35 40 35 35 21 28 21 25 20 22 21 20 23 26 24 22 23 24 23 17 12 10 9 17 6 12 19 20 19 15
19 19 21 23 24 25 26 22 25 28 31 23 24 26 26 28 14 25 30 29 30 28 30 28 32 21 34 25 21 20 21 20 15 16 16 16 13 9 7 5 3 1 2 5 7 9 15 18 17 16 22 21 18 13
18 20 20 9 16 19 20 22 20 16 17 20 23 26 25 18 16 28 28 23 25 24 24 24 22 17 13 24 23 21 20 21 19 18 16 12 9 9 7 5 5 6 10 9 8 18 18 21 21 24 22 17 15 14
Wind_Direction
260 259 252 257 261 260 259 264 264 258 268 274 253 275 276 269 272 278 279 275 274 276 290 289 288 292 283 288 277 281 293 287 272 291 290 294 278 281 296 283 290 293 292 283 287 297 279 302 297 288 291 296 293 295
242 254 248 259 258 253 262 259 259 261 265 267 270 273 273 278 277 271 274 276 269 279 281 287 278 282 292 292 295 293 296 296 271 284 291 289 285 286 286 295 281 287 287 297 305 306 308 289 299 298 300 299 300 296
248 249 257 254 256 256 254 254 256 257 258 264 265 267 269 275 264 272 272 271 272 275 276 277 281 276 277 281 284 274 290 291 292 287 288 290 289 293 289 291 285 286 284 294 300 304 303 303 301 307 305 305 303 296
252 253 251 255 255 256 261 255 254 255 257 256 260 264 265 267 270 274 270 275 273 273 274 276 277 277 278 279 280 283 283 286 285 285 274 280 289 289 290 293 277 293 302 283 299 299 299 303 298 304 306 298 301 297
250 250 249 247 256 257 255 260 253 259 257 255 255 254 258 264 265 268 272 275 274 274 273 274 276 264 277 280 282 282 282 282 283 283 279 282 281 282 290 296 290 290 301 302 294 294 303 303 303 303 303 301 299 300
251 245 245 245 260 265 256 255 252 256 253 252 254 253 259 259 260 263 266 268 264 269 270 269 272 274 277 279 280 281 282 284 275 285 287 288 290 292 287 290 296 296 298 299 297 297 298 298 299 300 301 299 297 300
249 247 248 249 251 251 255 254 254 254 250 251 252 253 254 254 256 257 253 261 258 263 264 267 270 272 272 273 276 277 279 281 283 284 286 286 287 287 287 287 291 289 293 294 295 296 295 296 297 299 300 299 299 295
246 247 246 248 247 246 251 249 251 256 250 250 252 256 253 251 252 256 257 251 262 263 262 269 266 271 269 271 273 276 275 276 279 281 283 285 286 285 284 286 285 287 289 290 291 293 295 296 296 296 297 296 296 293
243 253 244 246 246 244 244 247 247 249 252 252 250 264 251 250 249 259 252 251 253 261 265 261 267 268 270 270 273 274 278 279 278 279 280 281 283 284 282 282 286 287 289 290 292 294 296 297 297 297 295 294 294 295
243 242 245 244 245 245 241 244 247 248 248 247 252 252 252 251 251 251 255 252 252 254 261 261 260 264 272 269 272 273 274 275 275 277 278 280 282 283 283 284 287 289 290 291 293 295 295 280 286 294 295 297 294 294
242 242 241 244 244 242 241 246 245 246 250 251 256 251 251 251 257 252 253 256 253 254 254 257 260 260 263 265 269 271 273 275 277 278 278 279 279 281 273 284 286 287 289 293 291 292 292 292 295 294 291 300 300 298
244 243 243 244 244 244 246 247 245 250 250 252 253 252 251 251 251 254 254 255 257 254 256 260 263 263 263 263 266 269 268 270 272 274 272 277 278 280 281 284 232 339 287 288 290 288 287 286 292 296 292 294 298 296
244 244 243 244 243 243 244 246 248 250 252 255 251 260 254 256 256 255 256 256 255 257 255 257 259 262 264 265 267 267 272 273 273 274 275 274 275 276 278 286 285 286 288 285 287 290 294 296 287 289 292 299 294 298
242 244 245 244 246 246 246 247 248 249 251 255 257 260 262 263 264 260 259 257 258 262 259 260 261 262 264 265 266 268 269 271 275 276 286 274 274 275 276 277 280 283 283 286 289 284 285 284 286 287 289 296 294 297
241 242 243 245 246 247 247 249 250 251 252 252 255 257 258 263 263 265 260 264 259 261 261 263 264 265 265 264 268 268 273 271 271 272 295 275 275 279 279 277 278 290 285 284 285 285 286 289 290 289 291 289 290 293
242 243 243 243 244 245 246 248 249 250 252 253 254 257 259 260 262 264 263 265 268 270 262 261 262 262 263 264 269 269 274 276 268 272 275 273 275 278 282 279 287 286 286 285 287 283 284 290 290 292 295 295 296 295
243 243 245 246 246 247 249 249 249 251 253 255 254 255 257 260 261 266 265 267 265 267 271 272 274 258 265 271 271 267 275 268 274 278 279 279 278 283 280 278 289 286 284 293 287 288 291 291 291 291 289 289 293 298
243 244 245 247 248 249 250 251 252 253 255 255 256 259 260 262 264 263 264 268 268 268 265 266 272 273 273 275 275 283 274 279 281 281 281 281 284 276 281 283 289 290 290 288 287 285 286 292 293 295 297 295 297 296
242 244 245 246 247 248 250 251 252 254 254 256 258 260 261 255 264 264 262 267 268 268 270 276 273 275 275 278 278 278 279 277 279 278 281 286 285 283 284 285 282 286 285 284 286 287 292 290 293 294 295 296 296 303
243 243 244 245 247 248 250 251 253 253 254 256 256 258 260 262 264 265 266 267 259 270 274 275 276 276 276 275 277 278 276 284 279 278 281 282 282 282 282 284 286 287 288 289 289 287 289 291 293 294 295 297 299 299
242 243 243 246 246 248 249 252 252 252 254 255 257 258 259 259 260 262 265 266 269 264 260 276 276 276 276 276 276 279 281 281 280 279 279 281 283 285 287 287 288 289 289 289 289 285 299 290 290 292 292 294 296 297
240 241 243 244 249 251 250 251 254 257 257 257 257 257 258 260 262 264 266 270 276 276 277 275 274 274 273 278 280 281 283 282 282 283 285 286 287 291 289 288 290 295 293 285 267 286 283 286 285 287 289 292 293 291
241 241 242 244 245 247 249 251 254 256 254 256 258 260 261 263 264 266 269 243 274 275 272 271 271 276 278 283 283 283 284 284 285 286 288 287 288 291 298 303 296 288 286 297 273 280 283 281 284 283 284 284 284 285
247 246 248 249 251 253 254 252 253 254 256 257 258 259 261 262 263 266 274 270 275 270 270 274 278 279 280 283 284 284 286 278 288 15 294 293 292 296 298 300 297 289 283 278 278 280 280 278 280 273 273 273 277 280
248 253 255 254 259 258 258 259 259 259 258 259 259 261 262 253 266 268 268 268 282 271 274 275 282 285 286 285 272 285 289 288 323 287 289 292 298 300 299 300 299 298 295 308 290 280 278 278 278 258 261 266 273 263
247 244 250 249 246 247 252 255 259 263 268 270 271 270 270 271 273 277 270 270 272 274 278 281 283 278 274 285 289 290 286 292 292 294 297 290 286 290 287 292 294 290 293 289 286 284 281 279 239 244 270 255 247 248
238 231 233 239 245 247 250 253 257 256 262 262 262 265 269 274 275 271 271 273 273 275 278 279 282 285 287 290 288 264 296 301 296 299 298 298 295 298 293 287 277 287 286 284 283 283 284 278 226 231 239 231 237 234
231 234 240 250 253 252 250 249 250 250 254 260 269 277 278 274 269 272 275 277 281 281 282 280 338 299 306 303 289 285 286 294 294 295 293 292 330 291 285 284 279 276 274 275 277 283 278 266 221 225 234 213 221 226
242 236 244 226 233 238 241 244 254 267 275 273 270 272 278 280 279 276 279 280 282 296 304 305 304 292 289 281 281 291 292 299 284 296 290 292 294 296 280 274 273 273 275 273 276 280 216 207 215 219 205 207 208 195
227 232 237 239 243 248 258 271 274 274 272 274 279 278 273 273 276 293 295 299 304 305 224 282 284 289 285 289 294 285 286 291 294 293 291 292 298 298 288 278 272 263 256 263 239 200 199 211 203 200 186 189 191 210
238 245 252 260 268 276 275 266 264 274 276 278 284 290 295 287 283 293 302 311 300 292 299 290 289 294 298 287 291 307 294 302 298 319 311 305 303 292 290 289 278 266 267 205 195 204 254 175 95 263 179 181 190 226
258 262 265 267 263 262 267 272 276 276 282 293 294 300 300 302 299 267 286 300 308 306 302 310 304 324 289 278 264 279 305 316 326 324 327 326 329 332 339 339 20 330 284 254 218 191 169 171 164 174 175 181 182 149
263 265 267 278 269 279 281 280 288 282 285 294 301 301 308 320 299 328 327 314 312 311 306 307 305 306 307 268 281 293 298 311 311 311 310 305 309 307 306 291 259 249 234 219 205 183 171 163 161 174 178 165 143 148